Regional Weather Roundup
Issued by NWS

Home | Current Version | Previous Version | Graphics & Text | Print | Product List | Glossary On
Versions: 1 2 3 4 5 6 7 8 9 10 11 12 13 14 15 16 17 18 19 20 21 22 23 24 25 26 27 28 29 30 31 32 33 34 35 36 37 38 39 40 41 42 43 44 45 46 47 48 49 50
000
ASUS43 KMKX 041711
RWRWI

WISCONSIN REGIONAL WEATHER ROUNDUP
NATIONAL WEATHER SERVICE MILWAUKEE/SULLIVAN WI
1200 PM CDT TUE AUG 04 2015

NOTE: "FAIR" INDICATES FEW OR NO CLOUDS BELOW 12,000 FEET WITH NO
SIGNIFICANT WEATHER AND/OR OBSTRUCTIONS TO VISIBILITY.

WIZ001-002-006>008-014>016-023>028-041800-
NORTHWEST WISCONSIN

CITY           SKY/WX    TMP DP  RH WIND       PRES   REMARKS
SUPERIOR ARPT  CLOUDY    72  56  55 NW8       29.98S
ASHLAND        CLOUDY    69  53  56 NW8       29.98R
HAYWARD        PTSUNNY   70  50  49 NW9       29.99F
SIREN          SUNNY     73  51  45 NW10      29.99F
CUMBERLAND     MOSUNNY   70  50  49 W14G20    30.00F
RICE LAKE      SUNNY     73  51  45 NW8       30.01S
CHETEK         MOSUNNY   73  53  49 NW7       30.00S
LADYSMITH      PTSUNNY   72  53  50 W15       30.00F
EAU CLAIRE     MOSUNNY   75  54  47 NW13      29.99F
MENOMONIE      SUNNY     75  49  39 W13G18    30.00F
NEW RICHMOND   SUNNY     74  51  43 W10G16    30.00F
OSCEOLA        SUNNY     74  53  48 W9        30.02F
$$

WIZ003>005-009-010-017-018-041800-
NORTH CENTRAL WISCONSIN

CITY           SKY/WX    TMP DP  RH WIND       PRES   REMARKS
MANITOWISH WTR CLOUDY    64  53  66 NW9       29.99S
ARBOR VITAE    PTSUNNY   68  54  60 NW8       29.98F
WOODRUFF       PTSUNNY   68  54  60 NW8       29.98F
RHINELANDER    MOSUNNY   70  50  49 W14G21    29.98S
EAGLE RIVER    PTSUNNY   64  52  63 NW9       29.98S
LAND O LAKES   CLOUDY    65  50  60 NW8       29.99R
PHILLIPS       MOSUNNY   68  54  61 W9        29.99S
TOMAHAWK       PTSUNNY   69  52  55 NW13      29.99S
MEDFORD        PTSUNNY   69  52  54 NW8G17    29.99S
MERRILL        NOT AVBL
$$

WIZ029-030-035-036-043>047-041800-
CENTRAL WISCONSIN

CITY           SKY/WX    TMP DP  RH WIND       PRES   REMARKS
WAUSAU         MOSUNNY   74  49  41 NW14G22   29.95F
MOSINEE        MOSUNNY   70  54  56 NW15G28   29.99S
MARSHFIELD     PTSUNNY   72  51  47 NW17G23   29.99S
STEVENS POINT  PTSUNNY   71  50  47 NW9G18    29.98S
WAUPACA        PTSUNNY   76  50  39 W8        29.97S
WAUTOMA        PTSUNNY   76  49  38 NW15G22   29.98S
WISC RAPIDS    PTSUNNY   74  49  41 NW12G22   30.00S
CAMP DOUGLAS   PTSUNNY   75  54  46 NW10G17   29.99F
$$

WIZ011>013-019>022-031-037>040-048>050-041800-
NORTHEAST WISCONSIN

CITY           SKY/WX    TMP DP  RH WIND       PRES   REMARKS
ANTIGO         PTSUNNY   69  51  52 W15G21    29.97S
SHAWANO        PTSUNNY   74  51  44 NW13G20   29.94S
OCONTO         PTSUNNY   72  55  54 N8        29.92S
STURGEON BAY   PTSUNNY   66  55  68 NW6       29.96S
GREEN BAY      PTSUNNY   75  57  53 NW9G18    29.94S
MANITOWOC      PTSUNNY   74  52  46 MISG      29.94S
APPLETON       PTSUNNY   72  46  40 NW13G20   29.96S
CLINTONVILLE   MOSUNNY   73  46  38 NW10G20   29.94S
OSHKOSH        PTSUNNY   73  53  49 NW12      29.96S
$$

WIZ032>034-041-042-053>061-041800-
SOUTHWEST WISCONSIN

CITY           SKY/WX    TMP DP  RH WIND       PRES   REMARKS
LA CROSSE      MOSUNNY   77  53  43 N6        30.00F
SPARTA         SUNNY     76  47  36 NW7       30.01F
VIROQUA        MOSUNNY   73  52  48 NW8       30.03S
BOSCOBEL       PTSUNNY   77  53  43 W6        30.01S
PRAIRIE DU CHI CLOUDY    75  50  41 W8        30.02S
PLATTEVILLE    CLOUDY    75  55  50 NW6       30.02S
$$

WIZ056-057-062-063-064-067-068-041800-
SOUTH CENTRAL WISCONSIN

CITY           SKY/WX    TMP DP  RH WIND       PRES   REMARKS
REEDSBURG      MOSUNNY   74  51  44 NW8       29.99F
BARABOO/DELLS  MOSUNNY   74  47  37 NW8       30.00S
LONE ROCK      PTSUNNY   77  50  38 NW13      30.01S
MINERAL POINT  PTSUNNY   75  50  41 NW9       30.02S
MADISON        PTSUNNY   75  51  43 NW8G17    29.99S
MIDDLETON      MOSUNNY   77  46  33 NW9G16    30.00S
WATERTOWN      SUNNY     75  54  48 NW13      29.98S
MONROE         PTSUNNY   73  54  49 W8        30.00F
JANESVILLE     PTSUNNY   79  52  38 NW10      29.98S
$$

WIZ051-052-058>065-066-070>072-041800-
SOUTHEAST WISCONSIN

CITY           SKY/WX    TMP DP  RH WIND       PRES   REMARKS
MILWAUKEE      MOSUNNY   78  51  38 W15G21    29.96S
WAUKESHA       MOSUNNY   73  54  49 W9        29.99R
MILWAUKEE/TIMM MOSUNNY   75  52  43 W12G21    29.97S
RACINE         MOSUNNY   77  53  43 W14G21    29.97S
BURLINGTON     MOSUNNY   76  51  42 NW9G18    29.97F
KENOSHA        MOSUNNY   76  56  49 W15G22    29.96F
FOND DU LAC    SUNNY     75  53  46 NW12      29.97S
SHEBOYGAN      MOSUNNY   74  56  53 NW13      29.95S
WEST BEND      MOSUNNY   73  50  43 NW12      29.97S
JUNEAU         SUNNY     72  53  50 W8        29.98F
$$

LSZ147-162-041800-
LAKE SUPERIOR

STATION/POSITION TIME  TEMP    WIND        PRES    WAVE
                       AIR SEA DIR/SP/G            HT/PER
                 (UTC) (F)     (DEG/KT/KT) (MB)    (FT/S)
W MID LAKE BUOY  1650   58 57  230/  2/  2 1015.0R   1
DEVILS ISLAND    1700   59     270/  2/  6 1015.7R
PORT WING        1600   62     310/  4/  5 1015.6R
SAXON HARBOR     1640   65      20/  4     1015.2R
$$

LMZ867-665-643>646-041800-
LAKE MICHIGAN

STATION/POSITION TIME  TEMP    WIND        PRES    WAVE
                       AIR SEA DIR/SP/G            HT/PER
                 (UTC) (F)     (DEG/KT/KT) (MB)    (FT/S)
CHAMBERS ISLAND  1600   66     230/  4/  6 1013.5S
S GREEN BAY BUOY 1500   65 71  260/  6/  6 1015.1R
N MID LAKE BUOY  1650   63 69   CALM  /  2 1013.2R   1/ 3
NORTHPORT PIER   1600   65     340/  4/  7 1013.2S
SISTER BAY       1603   68     330/  6/  7   N/A
ALGOMA LAKESHORE 1612          330/  8/ 13   N/A
KEWAUNEE LAKESHO 1600   69     310/  5/ 11 1013.3R
SHEBOYGAN LAKESH 1700   65        CALM     1014.3S
PORT WASHINGTON  1600   75     300/  9/ 16 1014.9R
ATWATER BUOY     1700   66 52  290/ 10/ 12 1015.5F
MILWAUKEE LAKESH 1600   74     300/  6/ 11   N/A
KENOSHA   LAKESH 1700   77     290/ 12/ 19 1013.9F
$$

TC  - TEMPERATURE IN CELSIUS
VSB - VISIBILITY IN STATUTE MILES
WCI - WIND CHILL INDEX
HX  - HEAT INDEX




USA.gov is the U.S. government's official web portal to all federal, state and local government web resources and services.